Terminal Aerodrome Forecast
Issued by NWS Miami, FL

Home | Current Version | Previous Version | Text Only | Print | Product List | Glossary On
Versions: 1 2 3 4 5 6 7 8 9 10 11 12 13 14 15 16 17 18 19 20 21 22 23 24 25 26 27 28 29 30 31 32 33 34 35 36
000
FTUS42 KMFL 271139
TAFPBI
TAF
KPBI 271139Z 2712/2812 VRB05KT P6SM SCT250
      TEMPO 2712/2713 BKN015
     FM271700 12010KT P6SM FEW035 SCT250
     FM280000 VRB04KT P6SM SKC=

USA.gov is the U.S. government's official web portal to all federal, state and local government web resources and services.